• In Deutschland
  • Länderverzeichnis
  • Für 7 Tage
  • Wassertemperatur
  • Satellitenkarten
  • Wetterkarte
  • Widgets
  • user-avatar
    Anmelden

    Stündliche Wetter Vanadzor

    Heute, 17 Januar, Mittwoch

    Zeit Temperatur Niederschläge Wind Luftdruck Luftfeuchtigkeit
    00:00 -8°C° 0 mm 1 m/S 633 mmHg 83%
    01:00 -8°C° 0 mm 1 m/S 633 mmHg 83%
    02:00 -8°C° 0 mm 1 m/S 633 mmHg 83%
    03:00 -7°C° 0 mm 1 m/S 632 mmHg 84%
    04:00 -7°C° 0 mm 1 m/S 632 mmHg 84%
    05:00 -7°C° 0 mm 1 m/S 632 mmHg 84%
    06:00 -7°C° 0 mm 1 m/S 632 mmHg 84%
    07:00 -7°C° 0,1 mm 1 m/S 632 mmHg 82%
    08:00 -7°C° 0,1 mm 2 m/S 632 mmHg 80%
    09:00 -6°C° 0 mm 2 m/S 632 mmHg 77%
    10:00 -6°C° 0 mm 2 m/S 632 mmHg 75%
    11:00 -5°C° 0 mm 2 m/S 632 mmHg 73%
    12:00 -4°C° 0 mm 2 m/S 632 mmHg 71%
    13:00 -3°C° 0 mm 2 m/S 631 mmHg 71%
    14:00 -3°C° 0 mm 2 m/S 631 mmHg 72%
    15:00 -4°C° 0 mm 2 m/S 631 mmHg 73%
    16:00 -4°C° 0 mm 2 m/S 631 mmHg 76%
    17:00 -5°C° 0 mm 2 m/S 631 mmHg 78%
    18:00 -6°C° 0 mm 2 m/S 631 mmHg 81%
    19:00 -6°C° 0 mm 2 m/S 631 mmHg 80%
    20:00 -6°C° 0 mm 2 m/S 631 mmHg 80%
    21:00 -6°C° 0 mm 2 m/S 631 mmHg 79%
    22:00 -6°C° 0,1 mm 2 m/S 630 mmHg 79%
    23:00 -6°C° 0,1 mm 2 m/S 630 mmHg 79%

    Morgen, 18 Januar, Donnerstag

    Zeit Temperatur Niederschläge Wind Luftdruck Luftfeuchtigkeit
    00:00 -6°C° 0,1 mm 2 m/S 630 mmHg 79%
    01:00 -6°C° 0,1 mm 2 m/S 630 mmHg 80%
    02:00 -6°C° 0,1 mm 2 m/S 629 mmHg 80%
    03:00 -6°C° 0,1 mm 2 m/S 629 mmHg 81%
    04:00 -6°C° 0,2 mm 2 m/S 629 mmHg 82%
    05:00 -6°C° 0,2 mm 2 m/S 629 mmHg 83%
    06:00 -6°C° 0,2 mm 2 m/S 629 mmHg 84%
    07:00 -5°C° 0,2 mm 2 m/S 629 mmHg 83%
    08:00 -5°C° 0,2 mm 2 m/S 629 mmHg 82%
    09:00 -4°C° 0,2 mm 2 m/S 629 mmHg 82%
    10:00 -4°C° 0,2 mm 3 m/S 628 mmHg 80%
    11:00 -4°C° 0,2 mm 3 m/S 628 mmHg 78%
    12:00 -2°C° 0,2 mm 3 m/S 628 mmHg 76%
    13:00 -2°C° 0,2 mm 3 m/S 627 mmHg 76%
    14:00 -1°C° 0,2 mm 3 m/S 627 mmHg 76%
    15:00 -1°C° 0,2 mm 3 m/S 626 mmHg 75%
    16:00 -2°C° 0,2 mm 3 m/S 626 mmHg 78%
    17:00 -4°C° 0,2 mm 3 m/S 626 mmHg 81%
    18:00 -4°C° 0,2 mm 3 m/S 626 mmHg 84%
    19:00 -4°C° 0,1 mm 3 m/S 626 mmHg 84%
    20:00 -4°C° 0,1 mm 3 m/S 626 mmHg 84%
    21:00 -4°C° 0,1 mm 3 m/S 626 mmHg 84%
    22:00 -4°C° 0,1 mm 3 m/S 626 mmHg 84%
    23:00 -3°C° 0,1 mm 2 m/S 626 mmHg 84%

    übermorgen, 19 Januar, Freitag

    Zeit Temperatur Niederschläge Wind Luftdruck Luftfeuchtigkeit
    00:00 -3°C° 0,1 mm 2 m/S 626 mmHg 84%
    01:00 -4°C° 0 mm 2 m/S 626 mmHg 85%
    02:00 -4°C° 0 mm 2 m/S 625 mmHg 86%
    03:00 -3°C° 0 mm 1 m/S 625 mmHg 87%
    04:00 -3°C° 0,1 mm 1 m/S 626 mmHg 86%
    05:00 -2°C° 0,1 mm 1 m/S 626 mmHg 85%
    06:00 -2°C° 0,1 mm 1 m/S 626 mmHg 85%
    07:00 -1°C° 0,1 mm 1 m/S 627 mmHg 83%
    08:00 -1°C° 0,1 mm 1 m/S 627 mmHg 81%
    09:00 0°C° 0,1 mm 1 m/S 628 mmHg 80%
    10:00 +1°C° 0 mm 1 m/S 628 mmHg 77%
    11:00 +2°C° 0 mm 1 m/S 628 mmHg 74%
    12:00 +4°C° 0 mm 1 m/S 628 mmHg 70%
    13:00 +4°C° 0 mm 1 m/S 628 mmHg 71%
    14:00 +4°C° 0 mm 1 m/S 628 mmHg 72%
    15:00 +4°C° 0 mm 1 m/S 628 mmHg 72%
    16:00 +3°C° 0,1 mm 1 m/S 628 mmHg 75%
    17:00 +2°C° 0,1 mm 1 m/S 628 mmHg 78%
    18:00 +1°C° 0,1 mm 1 m/S 629 mmHg 80%
    19:00 +1°C° 0,1 mm 1 m/S 629 mmHg 81%
    20:00 +1°C° 0,1 mm 1 m/S 629 mmHg 81%
    21:00 +1°C° 0,1 mm 1 m/S 629 mmHg 82%
    22:00 0°C° 0 mm 1 m/S 630 mmHg 83%
    23:00 0°C° 0 mm 1 m/S 630 mmHg 84%

    20 Januar, Samstag

    Zeit Temperatur Niederschläge Wind Luftdruck Luftfeuchtigkeit
    00:00 -1°C° 0 mm 1 m/S 630 mmHg 85%
    01:00 -1°C° 0 mm 1 m/S 630 mmHg 85%
    02:00 -1°C° 0 mm 1 m/S 631 mmHg 85%
    03:00 -3°C° 0 mm 2 m/S 631 mmHg 85%
    04:00 -3°C° 0 mm 2 m/S 631 mmHg 85%
    05:00 -3°C° 0 mm 2 m/S 632 mmHg 85%
    06:00 -1°C° 0 mm 1 m/S 632 mmHg 85%
    07:00 -1°C° 0,1 mm 1 m/S 632 mmHg 83%
    08:00 0°C° 0,1 mm 1 m/S 633 mmHg 81%
    09:00 0°C° 0,1 mm 1 m/S 634 mmHg 80%
    10:00 +1°C° 0 mm 1 m/S 634 mmHg 76%
    11:00 +2°C° 0 mm 1 m/S 634 mmHg 73%
    12:00 +3°C° 0 mm 1 m/S 634 mmHg 69%
    13:00 +3°C° 0 mm 1 m/S 634 mmHg 70%
    14:00 +3°C° 0 mm 1 m/S 634 mmHg 70%
    15:00 +3°C° 0 mm 1 m/S 634 mmHg 71%
    16:00 +2°C° 0 mm 1 m/S 634 mmHg 74%
    17:00 +1°C° 0 mm 1 m/S 634 mmHg 76%
    18:00 -1°C° 0 mm 1 m/S 634 mmHg 79%
    19:00 -1°C° 0 mm 1 m/S 634 mmHg 79%
    20:00 -1°C° 0 mm 1 m/S 635 mmHg 78%
    21:00 -2°C° 0 mm 1 m/S 635 mmHg 77%
    22:00 -2°C° 0 mm 1 m/S 635 mmHg 77%
    23:00 -2°C° 0 mm 1 m/S 635 mmHg 76%

    21 Januar, Sonntag

    Zeit Temperatur Niederschläge Wind Luftdruck Luftfeuchtigkeit
    00:00 -2°C° 0 mm 1 m/S 635 mmHg 75%
    01:00 -4°C° 0 mm 2 m/S 635 mmHg 75%
    02:00 -4°C° 0 mm 2 m/S 636 mmHg 74%
    03:00 -4°C° 0 mm 2 m/S 636 mmHg 74%
    04:00 -4°C° 0 mm 2 m/S 635 mmHg 73%
    05:00 -5°C° 0 mm 2 m/S 635 mmHg 73%
    06:00 -5°C° 0 mm 2 m/S 635 mmHg 72%
    07:00 -4°C° 0 mm 2 m/S 635 mmHg 70%
    08:00 -3°C° 0 mm 2 m/S 636 mmHg 68%
    09:00 -3°C° 0 mm 2 m/S 636 mmHg 65%
    10:00 -1°C° 0 mm 2 m/S 636 mmHg 63%
    11:00 +1°C° 0 mm 2 m/S 636 mmHg 61%
    12:00 +3°C° 0 mm 2 m/S 636 mmHg 58%
    13:00 +3°C° 0 mm 2 m/S 635 mmHg 59%
    14:00 +3°C° 0 mm 2 m/S 635 mmHg 59%
    15:00 +3°C° 0 mm 2 m/S 635 mmHg 59%
    16:00 +1°C° 0 mm 2 m/S 635 mmHg 60%
    17:00 -1°C° 0 mm 2 m/S 635 mmHg 61%
    18:00 -3°C° 0 mm 2 m/S 634 mmHg 62%
    19:00 -3°C° 0 mm 2 m/S 634 mmHg 60%
    20:00 -3°C° 0 mm 2 m/S 634 mmHg 59%
    21:00 -3°C° 0 mm 2 m/S 634 mmHg 57%
    22:00 -3°C° 0 mm 2 m/S 634 mmHg 57%
    23:00 -3°C° 0 mm 2 m/S 634 mmHg 58%

    22 Januar, Montag

    Zeit Temperatur Niederschläge Wind Luftdruck Luftfeuchtigkeit
    00:00 -3°C° 0 mm 2 m/S 634 mmHg 58%
    01:00 -3°C° 0 mm 2 m/S 634 mmHg 58%
    02:00 -3°C° 0 mm 2 m/S 633 mmHg 58%
    03:00 -3°C° 0 mm 2 m/S 633 mmHg 58%
    04:00 -3°C° 0 mm 2 m/S 633 mmHg 58%
    05:00 -3°C° 0 mm 2 m/S 633 mmHg 58%
    06:00 -3°C° 0 mm 2 m/S 632 mmHg 58%
    07:00 -2°C° 0 mm 2 m/S 632 mmHg 58%
    08:00 -2°C° 0 mm 2 m/S 632 mmHg 57%
    09:00 -1°C° 0 mm 2 m/S 632 mmHg 56%
    10:00 +1°C° 0 mm 2 m/S 632 mmHg 55%
    11:00 +2°C° 0 mm 2 m/S 632 mmHg 54%
    12:00 +4°C° 0 mm 2 m/S 631 mmHg 53%
    13:00 +4°C° 0 mm 2 m/S 631 mmHg 54%
    14:00 +4°C° 0 mm 2 m/S 631 mmHg 55%
    15:00 +4°C° 0 mm 2 m/S 630 mmHg 55%
    16:00 +2°C° 0 mm 2 m/S 630 mmHg 55%
    17:00 +1°C° 0 mm 2 m/S 630 mmHg 55%
    18:00 -2°C° 0 mm 2 m/S 630 mmHg 55%
    19:00 -2°C° 0 mm 2 m/S 630 mmHg 54%
    20:00 -2°C° 0 mm 2 m/S 630 mmHg 52%
    21:00 -3°C° 0 mm 2 m/S 629 mmHg 51%
    22:00 -3°C° 0 mm 2 m/S 629 mmHg 51%
    23:00 -3°C° 0 mm 2 m/S 629 mmHg 51%
    Mehr zeigen